TimePDT,TemperatureF,Dew PointF,Humidity,Sea Level PressureIn,VisibilityMPH,Wind Direction,Wind SpeedMPH,Gust SpeedMPH,PrecipitationIn,Events,Conditions,WindDirDegrees,DateUTC
12:56 AM,37.0,34.0,89,29.96,10.0,Calm,Calm,-,N/A,,Partly Cloudy,0,2013-03-27 07:56:00
1:56 AM,33.1,32.0,96,29.95,10.0,Calm,Calm,-,N/A,,Overcast,0,2013-03-27 08:56:00
2:56 AM,33.1,30.0,89,29.94,8.0,Calm,Calm,-,N/A,,Clear,0,2013-03-27 09:56:00
3:32 AM,28.4,28.4,100,29.93,1.8,Calm,Calm,-,N/A,,Clear,0,2013-03-27 10:32:00
3:51 AM,30.2,30.2,100,29.92,2.0,Calm,Calm,-,N/A,,Clear,0,2013-03-27 10:51:00
3:56 AM,30.0,30.0,100,29.95,2.0,SSE,3.5,-,N/A,,Clear,150,2013-03-27 10:56:00
4:03 AM,28.4,26.6,93,29.92,1.0,SSE,3.5,-,N/A,,Clear,160,2013-03-27 11:03:00
4:19 AM,30.2,28.4,93,29.92,3.0,South,3.5,-,N/A,,Clear,190,2013-03-27 11:19:00
4:56 AM,30.0,28.0,92,29.95,6.0,SSE,4.6,-,N/A,,Clear,160,2013-03-27 11:56:00
5:56 AM,30.0,28.9,96,29.95,8.0,Calm,Calm,-,N/A,,Mostly Cloudy,0,2013-03-27 12:56:00
6:56 AM,32.0,30.0,92,29.95,10.0,Calm,Calm,-,N/A,,Overcast,0,2013-03-27 13:56:00
7:56 AM,35.1,33.1,92,29.95,9.0,ESE,4.6,-,N/A,,Mostly Cloudy,110,2013-03-27 14:56:00
8:56 AM,42.1,35.1,76,29.94,10.0,South,3.5,-,N/A,,Clear,170,2013-03-27 15:56:00
9:56 AM,46.0,37.0,71,29.94,10.0,SE,3.5,-,N/A,,Mostly Cloudy,140,2013-03-27 16:56:00
10:56 AM,50.0,36.0,59,29.92,10.0,Variable,5.8,-,N/A,,Mostly Cloudy,0,2013-03-27 17:56:00
11:56 AM,54.0,36.0,51,29.90,10.0,West,4.6,-,N/A,,Mostly Cloudy,270,2013-03-27 18:56:00
12:56 PM,55.9,33.1,42,29.90,10.0,Calm,Calm,-,N/A,,Mostly Cloudy,0,2013-03-27 19:56:00
1:56 PM,57.0,30.9,37,29.90,10.0,WSW,13.8,18.4,N/A,,Overcast,240,2013-03-27 20:56:00
2:56 PM,57.0,32.0,39,29.88,10.0,Calm,Calm,-,N/A,,Mostly Cloudy,0,2013-03-27 21:56:00
3:22 PM,51.8,41.0,67,29.91,6.0,West,17.3,25.3,0.00,Rain,Light Rain,260,2013-03-27 22:22:00
3:30 PM,48.2,42.8,82,29.92,2.5,WSW,15.0,25.3,0.02,Rain,Rain,250,2013-03-27 22:30:00
3:38 PM,48.2,42.8,82,29.90,6.0,NW,8.1,20.7,0.02,Rain,Light Rain,320,2013-03-27 22:38:00
3:56 PM,51.1,44.1,77,29.92,10.0,North,12.7,-,0.02,,Overcast,10,2013-03-27 22:56:00
4:56 PM,54.0,39.9,59,29.91,10.0,NE,8.1,-,N/A,,Clear,50,2013-03-27 23:56:00
5:56 PM,55.0,37.9,53,29.91,10.0,North,6.9,-,N/A,,Mostly Cloudy,350,2013-03-28 00:56:00
6:56 PM,52.0,37.9,59,29.94,10.0,North,6.9,-,N/A,,Mostly Cloudy,350,2013-03-28 01:56:00
7:56 PM,48.0,39.9,74,29.95,10.0,NW,3.5,-,0.00,,Overcast,320,2013-03-28 02:56:00
8:56 PM,46.0,39.9,79,29.96,10.0,NNW,3.5,-,N/A,,Overcast,340,2013-03-28 03:56:00
9:56 PM,45.0,39.9,82,29.98,10.0,Calm,Calm,-,N/A,,Overcast,0,2013-03-28 04:56:00
10:56 PM,43.0,39.0,86,29.99,10.0,WSW,5.8,-,N/A,,Overcast,250,2013-03-28 05:56:00
11:56 PM,43.0,39.0,86,29.98,10.0,Calm,Calm,-,N/A,,Scattered Clouds,0,2013-03-28 06:56:00